Location: Bremen
(53.0793°N, 8.8017°E)
Time: 11:21:25
(UTC+02:00)

Altair - Pass Details

Date: 21 April 2024
Orbit: 1501 x 1682 km, 47.2° (Epoch: 17 May)

Event Time Altitude Azimuth Distance (km) Brightness Sun altitude
Rises 03:43:37 0° 284° (WNW) 4,793 9.9 -18.4°
Reaches altitude 10° 03:48:28 10° 264° (W) 3,766 9.1 -17.9°
Enters shadow 03:49:25 12° 259° (W) 3,622 9.0 -17.8°
Maximum altitude 03:53:16 15° 233° (SW) 3,326 - -17.5°
Drops below altitude 10° 03:58:01 10° 202° (SSW) 3,692 - -17.0°
Sets 04:02:43 0° 181° (S) 4,645 - -16.6°
